Location: Newark
(58.8333°N, 23.5833°E)
Time: 14:32:42
(UTC+00:00)

Vanguard 2 - Pass Details

Date: 01 December 2019
Orbit: 553 x 2938 km, 32.9° (Epoch: 04 December)

Event Time Altitude Azimuth Distance (km) Brightness Sun altitude
Rises 03:20:52 0° 222° (SW) 6,768 12.0 -25.4°
Reaches altitude 10° 03:27:24 10° 208° (SSW) 5,605 11.7 -24.5°
Maximum altitude 03:37:18 19° 171° (S) 4,379 11.5 -23.2°
Drops below altitude 10° 03:45:28 10° 132° (SE) 4,521 12.2 -22.2°
Sets 03:49:52 0° 116° (ESE) 5,115 13.0 -21.6°
